Dewpoint
42 41 41 39 40 45 46 48 50 49 50 51 50 49 50 50 48 46 47 46 46 45 45 46 45 42 41 42 42 41 39 39
42 45 47 47 49 50 49 50 51 50 49 48 47 47 48 48 48 48 47 46 46 46 44 43 43 41 41 42 43 41 39 39
44 46 47 48 49 50 50 50 50 50 48 48 48 46 45 46 46 44 46 46 46 44 43 42 41 40 41 42 41 40 39 40
43 44 46 46 48 49 47 48 49 49 49 47 46 46 45 43 43 43 42 42 42 44 43 42 42 41 39 40 41 40 37 37
39 41 42 46 46 48 48 46 45 46 47 44 44 42 41 39 39 39 40 42 41 41 41 42 42 41 39 39 39 39 39 36
39 41 42 39 43 44 46 44 42 43 44 44 41 39 37 37 36 39 40 40 41 41 41 40 41 41 39 39 39 39 38 37
38 40 40 39 40 43 44 41 36 38 40 40 41 40 39 36 35 34 33 34 35 37 39 40 41 39 39 38 39 38 38 37
35 34 34 37 38 40 39 35 33 35 38 38 38 38 38 36 35 33 34 32 34 34 36 36 36 39 39 38 38 37 37 37
34 35 36 35 37 38 38 33 32 32 34 35 37 37 33 33 34 33 33 35 36 37 36 36 36 37 38 39 37 38 37 39
33 34 37 37 38 37 39 35 30 31 32 35 35 35 34 32 35 34 35 35 35 35 36 36 36 36 37 38 40 40 39 40
33 34 35 33 36 37 39 37 31 31 34 33 31 33 33 33 32 33 35 36 36 35 34 34 34 35 36 36 37 39 38 39
33 32 30 29 32 34 35 34 31 32 33 33 34 33 34 34 34 36 36 36 36 35 35 34 34 34 34 34 34 35 36 36
30 28 27 27 28 28 28 33 31 31 31 32 32 33 35 35 35 34 35 35 36 36 36 35 34 34 34 33 32 34 33 35
26 26 25 25 25 28 26 29 29 31 30 31 33 35 34 33 34 35 35 36 37 37 37 36 35 36 34 34 34 34 34 34
23 25 26 25 26 26 26 27 30 29 28 31 35 34 34 34 34 35 37 37 37 37 36 36 35 35 35 35 35 34 34 34
21 23 25 24 25 25 26 28 28 27 30 34 33 33 34 35 36 36 36 36 36 35 36 35 34 34 34 34 35 34 34 33
19 20 20 22 23 23 25 26 28 29 34 33 33 33 34 35 36 36 36 35 35 34 34 34 33 33 35 36 34 33 34 33
19 21 21 22 24 25 26 25 28 31 34 33 33 33 34 35 35 35 34 35 34 34 34 33 33 33 35 35 35 33 33 33
21 23 23 24 24 25 26 25 28 33 33 33 33 33 34 35 36 34 34 34 33 34 33 33 33 33 35 35 35 33 33 33
Lifted_Index
1 2 2 3 3 3 3 3 3 3 3 3 3 3 3 3 3 3 4 4 5 5 6 6 7 7 8 8 8 8 8 9
1 2 2 2 2 2 2 2 3 3 3 3 3 3 3 3 3 4 4 5 5 6 6 7 7 8 8 8 8 8 8 8
2 2 2 2 2 2 2 2 2 2 2 3 3 3 3 4 4 5 5 5 6 7 7 8 8 8 8 8 8 9 9 9
2 2 2 2 2 2 2 2 2 2 3 3 4 4 5 5 6 6 7 7 7 8 8 9 9 9 9 9 9 9 9 9
2 2 2 2 2 2 2 2 3 3 4 5 6 6 7 7 8 8 8 9 9 9 9 9 10 10 10 10 10 10 10 10
3 3 3 3 3 3 3 4 5 6 6 7 8 8 9 9 10 10 10 10 10 10 10 10 10 10 11 11 11 10 10 10
3 3 3 3 4 4 5 6 7 8 8 9 9 10 10 11 11 12 12 12 12 12 12 12 12 11 11 11 11 11 11 11
3 3 3 4 5 6 7 8 8 9 9 10 10 11 11 12 12 13 13 14 14 14 14 14 14 13 13 12 12 12 12 12
3 3 4 5 6 7 7 8 9 10 10 11 11 12 12 13 14 14 14 14 15 15 15 15 15 15 14 13 13 12 12 12
3 4 4 5 6 7 8 8 9 10 11 12 12 13 14 14 15 15 15 15 15 15 15 15 15 15 15 14 13 13 12 12
3 4 5 6 7 7 8 9 10 11 12 13 14 14 15 15 15 15 15 15 14 14 15 15 14 14 14 14 13 13 13 13
3 4 5 7 7 8 9 11 12 12 13 14 15 15 15 15 15 14 14 14 13 13 13 13 13 13 13 13 13 13 13 13
4 5 6 7 8 9 11 12 13 13 14 15 15 15 15 14 14 13 13 12 12 12 12 12 13 13 13 13 13 13 13 13
5 6 6 7 9 10 12 13 13 14 15 15 15 14 14 13 12 12 12 12 12 12 12 12 12 13 13 13 13 13 13 13
6 6 7 8 9 11 12 13 14 15 15 15 14 13 12 12 11 11 11 11 12 12 12 12 12 12 13 13 13 13 13 13
7 7 7 8 10 12 13 13 14 15 14 13 12 12 12 11 11 11 11 11 12 12 12 12 12 12 12 12 13 13 13 13
7 7 8 9 11 12 13 14 14 14 13 12 12 12 11 11 11 11 11 11 12 12 13 12 12 11 11 11 11 11 12 12
7 8 8 9 11 12 13 14 14 13 12 12 11 11 11 11 11 11 11 12 12 12 12 11 11 10 9 9 10 10 11 11
8 8 9 9 11 12 14 14 14 12 11 11 11 10 10 11 11 11 11 12 12 12 11 10 10 9 9 9 9 9 10 11